TimeCST,TemperatureF,Dew PointF,Humidity,Sea Level PressureIn,VisibilityMPH,Wind Direction,Wind SpeedMPH,Gust SpeedMPH,PrecipitationIn,Events,Conditions,WindDirDegrees,DateUTC
12:53 AM,30.9,30.0,96,30.54,4.0,North,26.5,36.8,N/A,,Overcast,10,2013-11-12 06:53:00
1:31 AM,30.2,28.4,93,30.58,2.5,North,25.3,38.0,0.00,,Overcast,10,2013-11-12 07:31:00
1:53 AM,30.0,28.9,96,30.57,2.5,North,26.5,34.5,0.00,,Overcast,10,2013-11-12 07:53:00
2:06 AM,30.2,28.4,93,30.60,3.0,North,24.2,36.8,N/A,,Overcast,10,2013-11-12 08:06:00
2:53 AM,28.9,27.0,92,30.60,3.0,North,26.5,34.5,N/A,,Overcast,10,2013-11-12 08:53:00
3:18 AM,28.4,26.6,93,30.63,6.0,North,26.5,34.5,N/A,,Overcast,10,2013-11-12 09:18:00
3:53 AM,30.0,27.0,88,30.61,9.0,NNE,24.2,32.2,N/A,,Overcast,20,2013-11-12 09:53:00
4:53 AM,28.9,26.1,89,30.64,10.0,North,19.6,-,N/A,,Overcast,10,2013-11-12 10:53:00
5:25 AM,28.4,24.8,86,30.67,10.0,North,19.6,-,N/A,,Overcast,10,2013-11-12 11:25:00
5:36 AM,28.4,24.8,86,30.67,10.0,North,20.7,28.8,N/A,,Overcast,10,2013-11-12 11:36:00
5:53 AM,26.1,21.0,81,30.69,10.0,North,20.7,28.8,N/A,,Overcast,10,2013-11-12 11:53:00
6:53 AM,25.0,21.0,85,30.73,10.0,North,15.0,-,N/A,,Mostly Cloudy,360,2013-11-12 12:53:00
7:53 AM,24.1,19.0,81,30.77,10.0,North,15.0,-,N/A,,Mostly Cloudy,360,2013-11-12 13:53:00
8:53 AM,26.1,15.1,63,30.80,10.0,North,16.1,-,N/A,,Clear,10,2013-11-12 14:53:00
9:53 AM,30.9,12.9,47,30.82,10.0,North,17.3,-,N/A,,Clear,10,2013-11-12 15:53:00
10:53 AM,34.0,15.1,46,30.81,10.0,NNE,20.7,-,N/A,,Clear,20,2013-11-12 16:53:00
11:53 AM,36.0,15.1,43,30.78,10.0,NNE,18.4,23.0,N/A,,Clear,20,2013-11-12 17:53:00
12:53 PM,39.9,14.0,35,30.75,10.0,NNE,13.8,18.4,N/A,,Clear,20,2013-11-12 18:53:00
1:53 PM,42.1,14.0,32,30.72,10.0,North,11.5,-,N/A,,Clear,10,2013-11-12 19:53:00
2:53 PM,43.0,16.0,34,30.71,10.0,NE,12.7,-,N/A,,Clear,40,2013-11-12 20:53:00
3:53 PM,44.1,16.0,32,30.69,10.0,Variable,4.6,-,N/A,,Clear,0,2013-11-12 21:53:00
4:53 PM,44.1,16.0,32,30.68,10.0,NE,3.5,-,N/A,,Clear,40,2013-11-12 22:53:00
5:53 PM,39.0,16.0,39,30.69,10.0,Calm,Calm,-,N/A,,Clear,0,2013-11-12 23:53:00
6:53 PM,37.9,16.0,41,30.71,10.0,SE,3.5,-,N/A,,Clear,130,2013-11-13 00:53:00
7:53 PM,34.0,15.1,46,30.72,10.0,SE,4.6,-,N/A,,Clear,130,2013-11-13 01:53:00
8:53 PM,34.0,16.0,48,30.71,10.0,SW,3.5,-,N/A,,Clear,220,2013-11-13 02:53:00
9:53 PM,34.0,12.9,42,30.69,10.0,South,4.6,-,N/A,,Clear,170,2013-11-13 03:53:00
10:53 PM,30.9,12.9,47,30.67,10.0,SSW,10.4,-,N/A,,Clear,200,2013-11-13 04:53:00
11:53 PM,28.0,12.9,53,30.64,10.0,SSW,9.2,-,N/A,,Clear,200,2013-11-13 05:53:00